Location: Halfweg
(53.1000°N, 6.6000°E)
Time: 12:33:25
(UTC+00:00)

Aureole 1 Rocket - Pass Details

Date: 15 May 2026
Orbit: 372 x 1149 km, 73.9° (Epoch: 8 June)

Event Time Altitude Azimuth Distance (km) Brightness Sun altitude
Rises 22:13:44 0° 331° (NNW) 3,278 8.5 -16.0°
Reaches altitude 10° 22:15:58 10° 327° (NNW) 2,456 7.4 -16.1°
Maximum altitude 22:21:36 58° 250° (WSW) 1,109 4.3 -16.4°
Enters shadow 22:25:44 23° 180° (S) 2,028 5.1 -16.5°
